Theta_e
336 337 338 338 337 336 335 335 335 335 334 334 334 334 333 332 332 331 331 329 328 327 326 325 325 324 323 323 323 323 322 321 320 319 319 319 319 319 319 318 317 317
336 337 337 337 335 335 335 335 335 334 334 333 332 332 330 330 330 330 329 327 326 326 325 324 323 322 322 322 322 321 320 319 318 317 318 317 318 318 317 317 316 315
336 337 337 335 334 335 335 334 334 334 333 333 331 329 329 328 328 327 327 326 325 324 323 323 322 321 321 321 321 320 319 318 317 317 317 317 317 316 316 315 315 314
336 336 336 335 334 334 334 333 333 333 332 331 330 328 327 326 325 326 326 325 324 323 322 322 321 320 320 320 320 319 317 317 316 316 316 316 315 315 314 313 313 312
336 336 335 334 333 333 333 333 332 331 331 330 329 327 325 324 325 326 325 325 323 322 321 320 320 319 319 319 318 317 316 316 316 315 315 314 314 313 313 312 312 311
337 336 334 333 333 333 332 332 331 330 329 328 327 326 324 324 326 326 325 324 322 321 320 320 319 318 318 318 317 316 315 315 314 314 313 313 312 311 311 311 311 311
336 335 334 333 333 332 332 331 330 329 329 328 326 324 323 325 326 326 324 322 321 320 320 319 319 318 318 317 316 315 314 313 313 312 312 311 310 310 310 310 310 310
336 335 334 334 333 332 330 329 328 328 328 327 325 322 323 325 326 325 323 321 320 320 319 319 318 317 317 316 315 314 313 313 312 311 311 310 310 310 309 310 310 310
336 335 334 333 332 331 329 328 327 326 326 325 323 322 323 325 325 323 322 321 320 319 319 318 317 317 316 315 313 313 313 312 311 311 310 310 309 309 309 309 310 310
335 334 333 332 331 329 328 327 326 325 325 323 322 322 323 324 324 322 321 320 319 319 318 317 316 316 315 313 312 312 311 311 310 310 309 309 309 309 309 309 310 309
333 333 332 330 329 328 327 326 325 324 323 322 322 322 323 323 323 322 320 319 319 318 317 316 316 314 313 312 311 311 310 310 310 310 309 309 309 309 309 309 308 308
332 331 330 328 327 326 325 324 323 322 321 321 322 322 322 323 323 321 320 319 318 317 316 315 314 312 311 311 310 310 310 310 310 310 309 309 309 308 308 308 308 308
331 330 328 326 325 324 324 323 322 321 321 321 322 321 320 322 322 320 319 318 317 315 315 314 312 311 310 310 310 309 310 310 309 309 309 308 308 308 307 307 306 306
330 329 327 325 324 323 323 322 321 321 321 321 320 320 320 321 320 319 318 317 315 314 314 313 311 310 310 309 309 309 309 309 309 309 309 308 308 307 306 305 304 303
329 328 326 325 323 322 322 321 320 320 320 320 319 320 321 320 319 318 316 315 314 314 312 311 310 309 309 308 308 309 309 308 308 308 308 308 307 306 306 304 302 300
327 326 325 324 323 322 320 320 320 320 320 320 319 319 320 319 317 316 315 314 313 312 311 310 309 308 308 307 307 308 308 308 307 307 307 307 306 305 304 302 301 299
325 324 324 323 322 321 320 320 320 320 320 319 318 318 319 318 316 315 314 313 312 311 310 310 308 307 306 306 306 307 307 307 307 307 306 306 305 304 303 302 302 302
323 323 322 321 320 320 319 319 319 319 318 318 318 317 317 316 315 314 313 312 311 311 310 309 306 305 305 305 305 306 306 306 306 306 306 306 305 305 304 304 305 305
321 321 322 320 319 318 318 319 318 318 317 317 316 316 315 315 314 313 312 311 311 310 308 306 304 304 304 304 305 305 306 306 306 305 305 305 305 305 305 305 305 304
321 320 320 319 317 317 317 317 317 316 316 316 315 315 315 314 313 312 310 310 308 307 306 304 303 303 303 304 304 304 305 306 306 305 305 305 305 305 305 304 304 304
319 319 318 317 316 316 316 316 316 315 315 315 315 314 314 313 312 310 309 308 306 305 304 303 302 302 303 303 303 304 304 305 305 305 305 305 305 304 304 304 303 303
317 317 317 316 316 316 316 316 316 315 315 315 315 314 313 312 310 309 308 307 305 304 303 302 301 301 302 302 302 303 304 305 304 304 304 304 304 304 303 303 302 302
317 317 316 315 316 316 316 315 315 315 315 315 314 314 312 311 309 308 307 306 305 304 302 300 300 300 301 301 302 303 304 304 304 303 303 304 304 304 303 303 302 301
317 317 316 315 316 316 316 316 316 315 315 314 314 313 312 310 309 308 307 306 305 303 301 300 299 299 300 301 302 303 304 304 303 303 304 303 303 303 303 302 301 299
316 316 316 316 316 317 317 316 316 315 314 314 313 312 311 309 308 308 307 306 304 302 301 300 298 298 299 301 302 303 304 304 303 303 304 303 301 300 300 300 299 299
316 316 316 317 317 317 317 316 315 314 314 313 313 312 310 309 308 308 307 306 304 302 301 301 299 297 299 301 302 302 303 304 303 303 303 302 301 299 299 298 298 297
Wind_Speed
19 19 18 18 18 17 18 18 16 14 14 14 13 13 13 13 12 11 12 12 11 9 8 8 8 7 8 8 8 9 9 9 9 9 9 9 9 9 10 9 9 8
20 18 17 19 20 20 20 19 16 17 18 16 15 17 17 15 14 13 12 12 11 10 9 9 8 8 8 9 9 9 9 10 9 9 9 9 10 10 10 10 9 9
19 17 17 19 21 20 19 18 17 19 20 18 17 19 19 16 15 14 13 12 11 10 9 9 9 9 9 9 9 9 10 10 9 9 9 9 9 9 9 9 9 9
19 18 17 20 21 19 18 18 19 20 20 20 19 19 18 17 17 15 13 12 11 10 10 10 10 10 10 9 9 10 10 10 9 9 10 10 9 10 9 9 10 10
20 18 17 20 22 20 18 17 19 20 20 21 21 19 19 19 18 15 13 12 11 11 11 11 11 10 10 10 10 10 10 10 9 9 10 10 9 10 9 10 10 10
21 19 18 21 22 21 20 17 18 21 22 23 22 20 20 19 17 15 13 12 12 12 12 12 11 10 10 9 10 10 10 10 10 10 11 11 10 10 10 10 10 10
22 21 19 19 20 21 21 18 18 23 24 24 23 22 21 18 16 15 13 13 13 13 13 13 12 10 10 9 10 11 10 10 11 11 11 11 11 11 11 11 11 11
23 21 19 19 18 18 17 16 19 24 25 24 23 23 20 15 14 14 13 13 14 14 14 13 12 11 10 10 11 12 11 11 11 11 12 12 12 12 11 11 11 11
22 21 20 20 18 16 14 15 21 25 24 24 24 21 17 14 14 14 13 14 15 15 14 13 12 11 10 11 12 12 12 12 12 12 12 12 12 12 11 11 11 11
21 21 21 20 19 19 19 20 25 26 24 24 23 19 17 15 15 14 14 15 15 15 14 13 12 11 11 12 12 12 13 13 13 13 12 12 12 12 11 11 10 11
21 21 22 22 21 22 23 25 28 28 26 24 22 19 18 16 15 15 15 15 15 15 14 13 12 12 12 13 13 13 13 13 13 13 13 13 12 12 11 11 11 11
22 23 24 23 21 24 27 29 29 30 28 24 20 19 19 17 16 15 15 15 15 15 14 13 12 13 13 13 13 13 13 13 13 13 13 13 12 12 11 11 11 12
21 22 23 21 21 25 28 28 28 30 28 24 21 20 18 17 16 15 16 16 15 15 14 13 13 13 14 13 14 14 13 14 14 14 13 13 12 12 12 12 12 12
21 22 21 20 20 23 24 26 27 27 25 23 21 19 17 16 16 16 17 16 16 15 14 14 14 14 14 14 14 14 14 14 14 14 14 13 13 13 13 13 14 14
26 23 19 20 23 24 23 25 26 24 22 22 20 17 16 16 16 17 17 17 16 15 14 15 15 14 14 14 14 14 14 14 14 14 14 14 14 14 14 14 15 16
25 21 21 24 26 26 25 25 25 23 22 21 18 16 16 17 17 17 18 18 16 16 16 15 13 14 16 16 15 15 15 15 14 14 13 14 14 14 14 14 15 16
23 22 24 26 26 25 25 26 26 24 22 20 18 16 16 17 18 18 18 17 16 16 16 13 13 17 19 18 17 16 15 15 15 14 13 13 14 14 14 14 13 12
23 23 25 25 25 25 25 25 25 23 22 20 19 18 18 18 18 18 18 17 16 16 14 14 17 21 21 19 19 17 15 15 14 14 13 13 13 13 13 11 10 9
23 25 25 24 25 25 24 24 24 23 22 20 18 19 19 19 18 18 17 16 16 15 14 16 21 23 22 21 20 18 16 15 13 13 13 13 13 12 11 10 10 9
23 24 23 23 25 26 26 24 23 22 21 19 19 19 19 19 18 18 17 16 16 16 16 19 23 24 23 22 20 18 16 15 14 13 13 13 12 12 11 10 10 9
24 25 24 24 26 26 25 22 21 22 21 19 20 19 19 19 18 17 17 17 17 17 18 19 23 25 24 22 20 18 16 15 14 14 13 13 12 11 10 10 9 9
26 29 27 26 25 24 23 22 22 22 21 20 20 19 19 19 17 17 18 18 18 18 18 20 24 26 23 22 21 19 16 15 14 13 13 13 12 11 11 10 9 9
28 32 29 26 25 23 22 22 20 20 20 21 20 20 20 18 17 17 18 18 19 19 19 21 24 25 24 23 23 19 15 13 13 13 13 12 12 11 10 10 10 10
29 33 29 26 24 23 22 21 21 21 21 21 21 21 20 18 17 18 18 18 19 19 20 21 22 24 26 24 21 18 14 13 12 13 13 12 11 10 9 10 11 12
28 29 27 25 24 22 22 22 22 22 22 21 21 20 19 18 18 18 18 18 18 19 20 19 21 25 26 22 20 18 13 10 11 13 12 12 11 11 10 10 11 12
27 27 26 25 24 22 22 22 22 22 22 21 21 20 19 18 18 18 19 18 18 19 19 18 20 24 25 22 20 17 9 6 10 13 13 12 12 12 11 11 10 10
Wind_Direction
177 174 168 170 173 169 168 167 161 158 161 160 153 149 155 154 146 136 120 107 105 110 123 131 130 131 129 123 113 105 102 97 92 91 90 89 86 82 79 75 74 73
178 177 175 174 173 169 167 164 158 158 160 161 160 159 161 154 140 132 121 115 118 128 136 136 134 137 133 125 116 107 104 101 98 98 96 95 90 86 83 78 76 75
176 177 177 177 174 169 169 167 161 161 164 166 165 164 167 157 135 126 123 124 129 137 140 138 139 139 133 127 116 108 108 105 105 106 101 98 94 90 87 83 80 77
179 181 177 173 171 168 172 171 165 166 170 172 171 170 168 152 131 126 128 132 138 141 143 142 141 140 134 127 116 112 112 110 110 111 105 99 96 95 93 89 86 81
180 180 175 171 169 170 174 171 168 169 168 170 174 173 163 146 133 135 137 140 146 145 146 147 143 141 136 128 120 117 116 114 115 114 108 104 101 99 97 94 92 86
175 174 172 169 170 172 172 170 169 168 165 167 171 167 157 145 139 144 144 147 152 148 149 150 147 144 137 128 123 119 119 119 120 117 112 109 106 103 101 97 94 89
173 172 168 165 168 169 168 169 171 173 171 169 168 162 154 147 144 144 145 151 153 151 152 152 150 147 137 130 125 121 121 121 121 121 116 113 110 106 102 98 95 90
170 170 166 161 162 162 161 162 168 174 174 170 165 159 153 150 147 143 147 154 154 153 154 152 152 149 140 133 128 125 124 123 124 123 118 115 112 107 103 100 96 91
165 166 162 156 155 157 154 157 168 173 173 169 162 155 154 154 148 146 154 157 154 153 154 152 152 148 139 133 131 130 127 126 126 124 120 118 114 110 107 103 98 93
161 160 155 153 158 166 166 166 170 171 168 163 155 151 159 160 149 150 157 157 156 156 154 152 150 144 137 133 132 131 129 128 128 125 122 119 114 111 109 105 100 96
159 155 153 155 161 170 172 166 164 164 160 155 150 154 162 160 153 155 160 159 158 157 153 151 147 139 135 133 131 132 131 130 128 124 120 116 113 110 107 103 99 94
157 154 154 156 159 167 170 164 161 160 155 151 154 160 162 160 158 157 161 161 158 155 153 148 142 138 136 134 133 133 131 128 125 122 119 116 114 109 104 101 97 90
158 155 153 155 158 162 163 161 160 158 154 154 160 162 160 161 159 157 160 159 154 153 151 144 140 138 136 136 136 134 131 128 126 123 121 118 114 109 103 98 93 86
158 156 154 153 153 155 157 157 157 154 153 157 162 162 161 159 156 157 158 155 152 151 148 142 140 139 138 139 138 136 132 130 127 126 124 120 114 110 104 97 91 85
157 155 154 153 151 151 154 156 154 153 155 158 161 164 162 155 154 157 156 154 154 150 144 142 140 140 145 144 141 138 135 132 130 129 127 123 118 113 106 100 95 91
155 154 155 156 153 151 151 152 154 155 155 156 159 162 159 152 152 156 156 156 155 148 144 142 140 145 150 147 143 140 136 133 133 131 128 125 121 115 111 108 104 98
151 151 153 155 153 151 152 152 154 154 153 155 158 157 154 152 153 155 157 157 153 148 144 140 141 149 151 146 142 140 137 136 134 131 129 127 124 121 120 120 120 113
150 151 154 154 151 150 150 149 149 149 151 155 156 152 150 152 154 156 157 155 150 146 142 139 146 152 151 146 142 139 138 137 134 132 131 129 128 129 131 133 133 129
152 153 154 151 146 143 143 145 147 149 150 150 148 150 151 152 156 158 155 152 147 143 138 140 149 153 151 146 143 141 140 138 134 133 132 130 131 134 135 136 132 126
153 151 147 145 144 143 142 142 143 144 145 144 146 153 155 154 157 157 152 146 144 140 135 140 150 154 151 146 144 141 139 136 132 131 129 129 132 134 134 134 129 124
152 146 140 140 145 146 143 139 139 140 143 147 154 158 157 157 158 155 147 143 141 139 135 141 152 153 150 147 144 139 135 132 128 128 128 128 131 131 129 127 122 115
150 147 143 141 142 141 140 139 141 145 149 155 161 161 158 159 156 150 146 143 142 140 138 144 153 153 151 149 143 134 130 129 128 130 130 129 130 129 125 120 114 110
153 152 147 143 142 140 141 144 148 153 158 162 163 161 160 159 153 147 146 145 143 142 141 146 154 156 153 148 141 133 130 133 135 135 134 133 133 132 126 118 117 120
154 155 149 144 145 145 147 153 159 162 163 164 163 162 161 158 152 148 147 146 145 146 145 148 155 159 155 148 142 138 136 140 144 141 139 139 136 131 125 124 130 134
151 152 150 148 151 154 157 161 163 164 163 163 163 162 161 159 154 149 147 147 147 146 147 150 156 159 157 150 147 146 143 147 153 149 145 144 139 130 125 129 139 147
149 150 151 153 157 160 161 162 163 163 163 164 163 162 161 159 154 149 147 147 145 147 150 153 157 161 160 154 153 156 158 156 157 156 153 148 144 138 132 135 144 156